This demonstration page uses our WeatherBlox Daily Observations layout. Learn more.

Left ArrowRight Arrow

39.92423, -83.80882

Hourly Observations for June 29, 2015

Temp ( °F °C ) Dew Point ( °F °C ) Humidity (%) Winds ( mph kmh ) Pressure ( in mb ) Visibility ( mi km ) Precip ( " mm )
12:56 am 00:56 Partly Cloudy 65 18.3 58 14.4 78 78 SSE 5 7 29.93 1014 9 14.48406 0 0
1:56 am 01:56 Cloudy 65 18.3 58 14.4 78 78 SE 6 9 29.92 1013 9 14.48406 0 0
2:56 am 02:56 Cloudy 64 17.7 59 15 84 84 SE 6 9 29.91 1013 9 14.48406 0 0
3:56 am 03:56 Cloudy 64 17.7 58 14.4 81 81 SE 7 11 29.89 1012 9 14.48406 0 0
4:56 am 04:56 Cloudy 64 17.7 58 14.4 81 81 SSE 7 11 29.88 1012 10 16.0934 0 0
5:56 am 05:56 Mostly Cloudy 64 17.7 58 14.4 81 81 SSW 5 7 29.89 1012 9 14.48406 0 0
6:56 am 06:56 Mostly Cloudy with Light Rain 62 16.6 59 15 90 90 SW 8 13 29.91 1013 5 8.0467 0.01 0.254
7:34 am 07:34 Mostly Cloudy with Light Rain 61 16 61 16 100 100 WSW 6 9 29.94 1014 2 3.21868 0.05 1.27
7:56 am 07:56 Cloudy with Light Rain 60 15.5 60 15.5 100 100 S 5 7 29.91 1013 1.5 2.41401 0.1 2.54
8:04 am 08:04 Cloudy with Light Rain 61 16 61 16 100 100 SSW 6 9 29.94 1014 1.25 2.011675 0.02 0.508
8:35 am 08:35 Cloudy with Light Rain 61 16 61 16 100 100 SE 7 11 29.94 1014 1.5 2.41401 0.16 4.064
8:46 am 08:46 Cloudy with Light Rain 61 16 61 16 100 100 ESE 7 11 29.91 1013 2.5 4.02335 0.18 4.572
8:56 am 08:56 Cloudy with Light Rain 60 15.5 60 15.5 100 100 ESE 8 13 29.9 1013 2.5 4.02335 0.2 5.08
9:10 am 09:10 Cloudy with Light Rain 61 16 61 16 100 100 SE 8 13 29.91 1013 2.5 4.02335 0.03 0.762
9:20 am 09:20 Cloudy with Rain 61 16 61 16 100 100 SE 7 11 29.94 1014 1.5 2.41401 0.08 2.032
9:46 am 09:46 Cloudy with Light Rain 61 16 59 15 94 94 E 10 17 29.91 1013 2.5 4.02335 0.19 4.826
9:56 am 09:56 Mostly Cloudy with Light Rain 60 15.5 60 15.5 100 100 E 9 15 29.9 1013 2 3.21868 0.23 5.842
10:06 am 10:06 Mostly Cloudy with Rain 61 16 61 16 100 100 ESE 10 17 29.91 1013 1.75 2.816345 0.05 1.27
10:11 am 10:11 Mostly Cloudy with Rain 61 16 61 16 100 100 ESE 8 13 29.91 1013 2 3.21868 0.08 2.032
10:13 am 10:13 Cloudy with Light Rain 61 16 61 16 100 100 ESE 8 13 29.91 1013 2 3.21868 0.08 2.032
10:19 am 10:19 Mostly Cloudy with Light Rain 61 16 61 16 100 100 SE 8 13 29.91 1013 3 4.82802 0.09 2.286
10:25 am 10:25 Mostly Cloudy with Rain 61 16 61 16 100 100 SE 9 15 29.91 1013 1.75 2.816345 0.13 3.302
10:29 am 10:29 Mostly Cloudy with Rain 61 16 61 16 100 100 SE 9 15 29.91 1013 1.25 2.011675 0.15 3.81
10:34 am 10:34 Mostly Cloudy with Light Rain 61 16 61 16 100 100 ESE 9 15 29.91 1013 1.5 2.41401 0.17 4.318
10:56 am 10:56 Mostly Cloudy with Light Rain 60 15.5 60 15.5 100 100 ESE 12 19 29.88 1012 2.5 4.02335 0.22 5.588
11:06 am 11:06 Mostly Cloudy with Light Rain 61 16 61 16 100 100 ESE 14 22 29.88 1012 3 4.82802 0.01 0.254
11:08 am 11:08 Mostly Cloudy with Light Rain 61 16 61 16 100 100 ESE 12 19 29.88 1012 2 3.21868 0.03 0.762
11:12 am 11:12 Mostly Cloudy with Rain 61 16 61 16 100 100 ESE 9 15 29.88 1012 1.25 2.011675 0.06 1.524
11:19 am 11:19 Mostly Cloudy with Light Rain 61 16 61 16 100 100 ESE 14 22 29.88 1012 1.5 2.41401 0.08 2.032
11:35 am 11:35 Mostly Cloudy with Light Rain 61 16 61 16 100 100 ESE 13 20 29.88 1012 2 3.21868 0.12 3.048
11:39 am 11:39 Cloudy with Light Rain 61 16 61 16 100 100 ESE 14 22 29.88 1012 3 4.82802 0.12 3.048
11:56 am 11:56 Cloudy with Light Rain 61 16.1 60 15.5 96 96 ESE 14 22 29.86 1011 2.5 4.02335 0.13 3.302
12:01 pm 12:01 Cloudy with Light Rain 61 16 61 16 100 100 ESE 15 24 29.88 1012 1.25 2.011675 0.04 1.016
12:09 pm 12:09 Cloudy with Rain 61 16 61 16 100 100 ESE 18 30 29.88 1012 1 1.60934 0.09 2.286
12:11 pm 12:11 Cloudy with Light Rain 61 16 61 16 100 100 ESE 20 31 29.88 1012 1.25 2.011675 0.09 2.286
12:21 pm 12:21 Mostly Cloudy with Light Rain 61 16 61 16 100 100 ESE 16 26 29.88 1012 1.5 2.41401 0.11 2.794
12:37 pm 12:37 Cloudy with Light Rain 61 16 61 16 100 100 SE 12 19 29.88 1012 2 3.21868 0.12 3.048
12:44 pm 12:44 Cloudy with Light Rain 61 16 61 16 100 100 S 8 13 29.88 1012 3 4.82802 0.12 3.048
12:56 pm 12:56 Cloudy with Mist and Fog 61 16.1 61 16.1 100 100 ESE 16 26 29.85 1011 2 3.21868 0.12 3.048
1:15 pm 13:15 Cloudy with Mist and Fog 61 16 61 16 100 100 SE 15 24 29.83 1010 1.5 2.41401 0 0
1:56 pm 13:56 Cloudy with Mist and Fog 62 16.6 62 16.6 100 100 SE 10 17 29.84 1011 3 4.82802 0 0
2:31 pm 14:31 Cloudy with Mist and Fog 63 17 63 17 100 100 SSE 12 19 29.83 1010 2.5 4.02335 0.01 0.254
2:42 pm 14:42 Cloudy with Mist and Fog 64 18 64 18 100 100 SSE 9 15 29.83 1010 3 4.82802 0.01 0.254
2:56 pm 14:56 Cloudy with Mist and Fog 64 17.7 64 17.7 100 100 SSE 12 19 29.83 1010 2.5 4.02335 0.01 0.254
3:05 pm 15:05 Cloudy with Mist and Fog 64 18 64 18 100 100 SSE 8 13 29.8 1009 3 4.82802 0 0
3:56 pm 15:56 Cloudy with Mist and Fog 65 18.3 64 17.7 96 96 SSE 8 13 29.82 1010 6 9.65604 0 0
4:56 pm 16:56 Cloudy with Mist and Fog 67 19.4 65 18.3 93 93 SSE 5 7 29.8 1009 6 9.65604 0 0
5:18 pm 17:18 Cloudy with Mist and Fog 68 20 66 19 94 94 VRB 3 6 29.8 1009 6 9.65604 0 0
5:56 pm 17:56 Cloudy with Mist and Fog 69 20.5 67 19.4 93 93 ESE 5 7 29.8 1009 6 9.65604 0 0
6:28 pm 18:28 Cloudy with Mist and Fog 70 21 66 19 88 88 NNE 3 6 29.8 1009 6 9.65604 0 0
6:56 pm 18:56 Cloudy with Mist and Fog 70 21.1 67 19.4 90 90 ESE 5 7 29.81 1010 6 9.65604 0 0
7:08 pm 19:08 Cloudy with Mist and Fog 70 21 66 19 88 88 ESE 3 6 29.8 1009 6 9.65604 0 0
7:25 pm 19:25 Mostly Cloudy with Mist and Fog 72 22 66 19 83 83 Calm 29.8 1009 6 9.65604 0 0
7:56 pm 19:56 Mostly Cloudy with Haze 71 21.6 66 18.8 84 84 WNW 5 7 29.81 1009 6 9.65604 0 0
8:23 pm 20:23 Partly Cloudy with Mist and Fog 70 21 66 19 88 88 Calm 29.8 1009 6 9.65604 0 0
8:38 pm 20:38 Mostly Cloudy with Mist and Fog 68 20 66 19 94 94 W 3 6 29.8 1009 5 8.0467 0 0
8:56 pm 20:56 Cloudy with Mist and Fog 68 20 67 19.4 96 96 W 3 6 29.83 1010 5 8.0467 0 0
9:25 pm 21:25 Mostly Cloudy with Mist and Fog 66 19 66 19 100 100 NNW 3 6 29.8 1009 6 9.65604 0 0
9:56 pm 21:56 Clear with Mist and Fog 65 18.3 65 18.3 100 100 NW 5 7 29.83 1010 5 8.0467 0 0
10:56 pm 22:56 Clear with Mist and Fog 63 17.2 63 17.2 100 100 NW 5 7 29.85 1011 2 3.21868 0 0
11:09 pm 23:09 Clear with Mist and Fog 63 17 63 17 100 100 Calm 29.83 1010 3 4.82802 0 0
11:16 pm 23:16 Clear with Mist and Fog 63 17 63 17 100 100 Calm 29.83 1010 1.75 2.816345 0 0
11:31 pm 23:31 Clear with Mist and Fog 63 17 63 17 100 100 Calm 29.83 1010 1.25 2.011675 0 0
11:40 pm 23:40 Clear with Mist and Fog 63 17 63 17 100 100 NW 3 6 29.83 1010 0.75 1.207005 0 0
11:46 pm 23:46 Clear with Fog 63 17 63 17 100 100 Calm 29.83 1010 0.25 0.402335 0 0
11:56 pm 23:56 Clear with Fog 61 16.1 61 16.1 100 100 Calm 29.85 1011 0.25 0.402335 0 0

Powered by AerisWeather